Regional Weather Roundup
Issued by NWS

Home | Current Version | Previous Version | Graphics & Text | Print | Product List | Glossary On
Versions: 1 2 3 4 5 6 7 8 9 10 11 12 13 14 15 16 17 18 19 20 21 22 23 24 25 26 27 28 29 30 31 32 33 34 35 36 37 38 39 40 41 42 43 44 45 46 47 48 49 50
000
ASUS43 KDTX 270510
RWRMI
MICHIGAN HOURLY REGIONAL WEATHER ROUNDUP
NATIONAL WEATHER SERVICE DETROIT/PONTIAC MI
1200 AM EST TUE JAN 27 2015

NOTE: "FAIR" INDICATES FEW OR NO CLOUDS BELOW 12,000 FEET WITH NO
SIGNIFICANT WEATHER AND/OR OBSTRUCTION TO VISIBILITY.

MIZ047>049-052>055-059>063-066>070-074>076-081>083-270600-
SOUTHEAST LOWER MICHIGAN

CITY           SKY/WX    TMP DP  RH WIND       PRES   REMARKS
ADRIAN         CLEAR     13   8  81 CALM      29.97S
ALMA           CLOUDY    17  14  86 CALM      30.00R
ANN ARBOR      CLEAR     10   6  84 CALM      29.96S
BAD AXE        CLEAR      4   1  86 CALM      30.00S
DETROIT CITY   MOCLDY    19  11  70 NE6       29.98S
DETROIT        PTCLDY    15  10  80 NW3       29.98S
FLINT          CLEAR     14   9  80 E5        29.98S
GROSSE ILE     CLEAR     12   9  85 CALM      29.96S
HILLSDALE      CLEAR     13   7  77 CALM      29.92R
HOWELL         CLEAR     13  10  87 CALM      29.96R

CITY           SKY/WX    TMP DP  RH WIND       PRES   REMARKS
JACKSON        CLEAR     17  10  74 E8        29.94R
LAMBERTVILLE   CLEAR     12   9  85 CALM      29.98S FOG
LANSING        MOCLDY    15  10  80 E3        29.98R
LAPEER         NOT AVBL
MASON          MOCLDY    16  10  78 E3        29.96R
MT. CLEMENS    CLEAR     13   9  82 NE5       29.96S
PONTIAC        CLEAR     10   7  87 N3        29.95R
PORT HOPE        N/A     18   9  68 E8        30.01R
PORT HURON     CLEAR     10   9  92 CALM      29.99S
TRI CITIES     CLEAR     13   7  77 NE3       30.01R
YPSILANTI      CLEAR     13   6  74 NW5       29.98S
$$
MIZ043>046-050>051-056>058-064>065-071>073-077>080-270600-
SOUTHWEST LOWER MICHIGAN

CITY           SKY/WX    TMP DP  RH WIND       PRES   REMARKS
BATTLE CREEK   CLOUDY    23   9  55 E5        29.94S
BENTON HARBOR  CLOUDY    22  14  71 E5        29.95R
BIG RAPIDS     CLOUDY    18  11  75 E5        29.97S
COLDWATER      MOCLDY    19  10  69 CALM      29.94R
HOLLAND        CLOUDY    23  11  60 E9        29.97R
GRAND RAPIDS   CLOUDY    19  11  70 E9        29.97R
KALAMAZOO      CLOUDY    22   8  55 E3        29.95R
MARSHALL       CLOUDY    19   9  67 CALM      29.94R
MUSKEGON       CLOUDY    21  10  62 E6        29.98R
$$
MIZ016>042-270600-
NORTHERN LOWER MICHIGAN

CITY           SKY/WX    TMP DP  RH WIND       PRES   REMARKS
ALPENA         CLOUDY    18  10  71 NE5       30.04S
BEAVER ISLAND  CLOUDY    20  13  73 CALM      30.04R
BELLAIRE       CLOUDY    19  12  72 CALM      30.04R
CADILLAC       CLOUDY    16  10  79 E8        29.95R
CHARLEVOIX     CLOUDY    19  13  76 E6        30.07R
FRANKFORT      CLOUDY    20  10  63 E5        30.00R
GAYLORD        CLOUDY    15  10  80 NE3       29.98R
GRAYLING       CLOUDY    16  12  85 CALM      29.99S
HARBOR SPRINGS CLOUDY    17  11  76 E3        30.04R
HOUGHTON LAKE  CLOUDY    14   9  80 E5        29.98R
MANISTEE       CLOUDY    19   9  63 E7        30.00R
OSCODA         MOCLDY    20  10  63 E8        30.02R
PELLSTON       CLOUDY    17  10  74 E5        30.05R
TRAVERSE CITY  CLOUDY    20  11  68 E6        30.01R
$$
MIZ007>008-015-270600-
EASTERN UPPER MICHIGAN

CITY           SKY/WX    TMP DP  RH WIND       PRES   REMARKS
KINROSS        CLOUDY    10   3  72 E12       30.08R WCI  -4
MACKINAC ISLAN LGT SNOW  20  16  84 E9        30.05R
NEWBERRY       CLOUDY    10   6  85 E7        30.05R
S. S. MARIE    MOCLDY    11  -3  53 E6        30.10R
$$
MIZ004>006-011>014-085-270600-
CENTRAL UPPER MICHIGAN

CITY           SKY/WX    TMP DP  RH WIND       PRES   REMARKS
MANISTIQUE     CLOUDY    19  15  84 E9        30.03R
ESCANABA       CLOUDY    21  18  86 E5        30.00R
MENOMINEE      CLOUDY    21  19  93 E7        29.98R
SAWYER-GWINN   FLURRIES  17  14  88 SE3       29.97R
$$
MIZ001>003-009>011-084-270600-
WESTERN UPPER MICHIGAN

CITY           SKY/WX    TMP DP  RH WIND       PRES   REMARKS
IRON MOUNTAIN  LGT SNOW  20  17  88 E7        29.94R FOG
HOUGHTON       CLOUDY    18  16  92 E6        29.95R
COPPER HARBOR    N/A     24  18  77 S12G20    29.99R
IRONWOOD       CLOUDY    21  18  86 CALM      29.90R
$$

ABBREVIATIONS USED IN REMARKS
   TC - TEMPERATURE IN CELSIUS
  WCI - WIND CHILL INDEX
   HX - HEAT INDEX
  VSB - VISIBILITY




USA.gov is the U.S. government's official web portal to all federal, state and local government web resources and services.